User: anonymous   Login
Location: Unspecified
(0.0000°N, 0.0000°E)
Time: 19:28:26
(UTC+00:00)
Language:

ASUSAT - Orbit

View from above orbital plane
View from above orbital plane
View from above satellite
View from above satellite

Ground track
Ground track

The orbit data is extracted from the following two-line orbital elements,

1 26065U 00004E   19340.92658774 -.00000018 +00000-0 +14070-4 0  9994
2 26065 100.2283 162.9326 0036160 283.3884 076.3267 14.36885981041041
Epoch (UTC): 06 December 2019 22:14:17
Eccentricity: 0.0036160
inclination: 100.2283°
perigee height: 743 km
apogee height: 794 km
right ascension of ascending node: 162.9326°
argument of perigee: 283.3884°
revolutions per day: 14.36885981
mean anomaly at epoch: 76.3267°
orbit number at epoch: 4104

The dashed part of the orbit path shows where the satellite is in the earth's shadow,  

DLR